This is the latest recevied weather packets stored in our database for station/object NZ3C. If no packets are shown the sender has not sent any weather packets the latest 10 day(s).
| Time | Temp. | Humidity | Pressure | Rain* | Wind** | Luminosity | Snow |
|---|---|---|---|---|---|---|---|
| 1777750589 | 12.22° C | 93% | 1013.1 hPa | 1.78 mm | - | 190 W/m² | - |
| 1777750286 | 11.67° C | 93% | 1013 hPa | 1.78 mm | - | 144 W/m² | - |
| 1777749981 | 11.67° C | 92% | 1013.1 hPa | 0 mm | - | 136 W/m² | - |
| 1777749679 | 11.67° C | 93% | 1013 hPa | 0 mm | - | 115 W/m² | - |
| 1777749376 | 12.22° C | 93% | 1013.2 hPa | 0 mm | - | 136 W/m² | - |
| 1777749073 | 11.67° C | 93% | 1013.1 hPa | 0 mm | - | 163 W/m² | - |
| 1777748771 | 11.67° C | 94% | 1013 hPa | 1.27 mm | - | 118 W/m² | - |
| 1777748468 | 11.67° C | 93% | 1013.4 hPa | 1.27 mm | - | 129 W/m² | - |
| 1777748162 | 11.67° C | 93% | 1013 hPa | 1.78 mm | - | 159 W/m² | - |
| 1777747860 | 11.67° C | 93% | 1012.7 hPa | 1.78 mm | - | 151 W/m² | - |
| 1777747556 | 11.67° C | 94% | 1013.1 hPa | 1.27 mm | - | 118 W/m² | - |
| 1777747251 | 11.11° C | 93% | 1012.9 hPa | 3.05 mm | - | 174 W/m² | - |
| 1777746948 | 11.11° C | 93% | 1013.6 hPa | 3.05 mm | - | 159 W/m² | - |
| 1777746644 | 11.67° C | 92% | 1013.7 hPa | 3.05 mm | - | 80 W/m² | - |
| 1777746339 | 11.67° C | 92% | 1013.8 hPa | 1.78 mm | - | 80 W/m² | - |
| 1777746036 | 11.67° C | 92% | 1013.5 hPa | 0 mm | - | 78 W/m² | - |
| 1777745734 | 11.67° C | 93% | 1013.8 hPa | 0 mm | - | 65 W/m² | - |
| 1777745432 | 11.67° C | 92% | 1013.6 hPa | 0 mm | - | 55 W/m² | - |
| 1777745129 | 11.67° C | 92% | 1013.7 hPa | 0 mm | - | 88 W/m² | - |
| 1777744825 | 11.67° C | 92% | 1013.9 hPa | 0 mm | - | 146 W/m² | - |
| 1777744519 | 11.67° C | 92% | 1013.5 hPa | 0 mm | - | 192 W/m² | - |
| 1777744216 | 11.67° C | 93% | 1013.7 hPa | 0 mm | - | 262 W/m² | - |
| 1777743913 | 11.67° C | 94% | 1013.7 hPa | 0 mm | - | 231 W/m² | - |
| 1777743609 | 11.67° C | 94% | 1013.7 hPa | 0 mm | - | 105 W/m² | - |
| 1777743307 | 11.67° C | 94% | 1013.9 hPa | 1.27 mm | - | 105 W/m² | - |
* Rain latest hour (hover to see other rain measurements)
** Current wind speed in m/s (hover to see current wind gust speed)